Simultaneous Nadir Overpasses (SNOs) Predictions

Prediction of SNOs between GOES-15 and METOP-C Satellite Orbit:

Table of predicted SNOs for the next 14.0 days since TLE Epoch: 7/4/2025
Index Date Time (GOES-15) GOES-15 Lat,Lon METOP-C Lat,Lon Distance(km) Time Diff (sec)
1 07/05/2025 05:33:20 -0.10, 61.24 0.25, 59.80 163.93 80
2 07/06/2025 05:10:02 -0.13, 61.24 -0.92, 64.79 404.16 80
3 07/07/2025 17:31:41 0.08, 61.30 -0.19, 60.21 124.82 80
4 07/08/2025 17:08:22 0.12, 61.31 0.98, 65.19 443.15 80
5 07/10/2025 05:29:53 -0.07, 61.26 0.07, 60.65 70.39 80
6 07/11/2025 05:06:34 -0.11, 61.27 -1.10, 65.63 496.85 80
7 07/12/2025 17:28:14 0.06, 61.35 0.00, 61.05 33.26 80
8 07/15/2025 05:23:45 -0.06, 61.32 -0.13, 61.49 20.48 80
9 07/17/2025 17:22:05 0.04, 61.41 0.16, 61.90 56.49 80
